Pierre, SD

3:35 AM CST on February 22, 2017 (GMT -0600)
Pierre Regional

Weather History for KPIR - July, 2013

Change the Weather History Date:

Saturday, July 13, 2013

  Actual Average Record
Temperature  
Mean Temperature 82 °F 75 °F  
Max Temperature 92 °F 89 °F 110 °F (1974)
Min Temperature 71 °F 62 °F 45 °F (1950)
Degree Days  
Heating Degree Days 0 0  
Month to date heating degree days 0 0  
Since 1 June heating degree days 60 53  
Since 1 July heating degree days 0 0  
Cooling Degree Days 17 11  
Month to date cooling degree days 126 124  
Year to date cooling degree days 267 290  
Since 1 June cooling degree days 245 258  
Growing Degree Days 31 (Base 50)    
Moisture  
Dew Point 70 °F    
Average Humidity 69    
Maximum Humidity 93    
Minimum Humidity 44    
Precipitation  
Precipitation 0.00 in 0.09 in 2.28 in (1966)
Month to date precipitation 1.91 1.09  
Year to date precipitation 13.73 11.86  
Sea Level Pressure  
Sea Level Pressure 29.85 in    
Wind  
Wind Speed 8 mph (East)    
Max Wind Speed 31 mph    
Max Gust Speed 63 mph    
Visibility 10 miles    
Events      
T = Trace of Precipitation, MM = Missing Value Source: NWS Daily Summary

Daily Weather History Graph

Daily Weather History Graph

Search for Another Location

Airport or City:

Trip Planner

Search our weather history database for the weather conditions in past years. The results will help you decide how hot, cold, wet, or windy it might be!

Date:

Astronomy

Jul. 13, 2013 Rise Set
Actual Time 6:09 AM CDT 9:23 PM CDT
Civil Twilight 5:33 AM CDT 9:59 PM CDT
Nautical Twilight 4:47 AM CDT 10:45 PM CDT
Astronomical Twilight 3:51 AM CDT 11:41 PM CDT
Moon 11:41 AM CDT (7/13) 11:50 PM CDT (7/13)
Length of Visible Light 16h 25m
Length of Day
15h 14m
Waxing Crescent, 26% of the Moon is Illuminated
Jul 13
Waxing Crescent
Jul 15
First Quarter
Jul 22
Full
Jul 29
Last Quarter
Aug 6
New

Hourly Weather History & Observations

Time (CDT) Temp. Heat Index Dew Point Humidity Pressure Visibility Wind Dir Wind Speed Gust Speed Precip Events Conditions
12:53 AM 73.9 °F - 66.9 °F 79% 29.83 in 10.0 mi North 4.6 mph - N/A   Clear
1:53 AM 72.0 °F - 68.0 °F 87% 29.86 in 10.0 mi ESE 6.9 mph - N/A   Clear
2:53 AM 72.0 °F - 68.0 °F 87% 29.86 in 10.0 mi Calm Calm - N/A   Clear
3:53 AM 72.0 °F - 68.0 °F 87% 29.85 in 10.0 mi Calm Calm - N/A   Clear
4:53 AM 73.0 °F - 69.1 °F 87% 29.87 in 10.0 mi Calm Calm - N/A   Mostly Cloudy
5:53 AM 71.1 °F - 68.0 °F 90% 29.86 in 10.0 mi ESE 6.9 mph - N/A   Clear
6:53 AM 71.1 °F - 69.1 °F 93% 29.85 in 9.0 mi North 8.1 mph - N/A   Clear
7:53 AM 73.0 °F - 70.0 °F 90% 29.83 in 10.0 mi NE 11.5 mph - N/A   Clear
8:53 AM 78.1 °F - 71.1 °F 79% 29.86 in 10.0 mi ENE 13.8 mph - N/A   Clear
9:53 AM 80.1 °F 83.6 °F 71.1 °F 74% 29.88 in 10.0 mi East 10.4 mph - N/A   Clear
10:53 AM 82.0 °F 86.3 °F 71.1 °F 69% 29.89 in 10.0 mi East 12.7 mph - N/A   Partly Cloudy
11:53 AM 84.9 °F 90.7 °F 72.0 °F 65% 29.88 in 10.0 mi ESE 11.5 mph - N/A   Partly Cloudy
12:53 PM 86.0 °F 91.5 °F 71.1 °F 61% 29.88 in 10.0 mi East 10.4 mph - N/A   Clear
1:53 PM 88.0 °F 95.6 °F 73.0 °F 61% 29.86 in 10.0 mi Variable 6.9 mph - N/A   Partly Cloudy
2:53 PM 89.1 °F 91.3 °F 66.0 °F 46% 29.85 in 10.0 mi ESE 10.4 mph - N/A   Clear
3:53 PM 90.0 °F 93.6 °F 68.0 °F 48% 29.84 in 10.0 mi ESE 10.4 mph - N/A   Clear
4:53 PM 91.0 °F 94.3 °F 66.9 °F 45% 29.83 in 10.0 mi East 5.8 mph - N/A   Clear
5:53 PM 91.9 °F 95.9 °F 68.0 °F 45% 29.82 in 10.0 mi North - - N/A   Clear
6:53 PM 90.0 °F 96.4 °F 71.1 °F 54% 29.80 in 10.0 mi East 5.8 mph - N/A   Clear
7:53 PM 87.1 °F 94.5 °F 73.0 °F 63% 29.80 in 10.0 mi ESE 5.8 mph - N/A   Clear
8:53 PM 82.0 °F 85.9 °F 70.0 °F 67% 29.80 in 10.0 mi SE 6.9 mph - N/A   Clear
9:53 PM 80.1 °F 84.5 °F 73.9 °F 81% 29.83 in 10.0 mi ESE 6.9 mph - N/A   Clear
10:53 PM 78.1 °F - 73.9 °F 87% 29.86 in 10.0 mi ESE 5.8 mph - N/A   Clear
11:53 PM 78.1 °F - 75.0 °F 90% 29.87 in 10.0 mi East 5.8 mph - N/A   Clear